GEC8745 EETN-EDDF

Flight info

Callsign GEC8745
Flight time 1h 57m
Altitude 36000
Route LONSA DCT SUVIX DCT PIMEX P739 DEREX DCT KOLJA/N0475F380 DCT GOSOT DCT BANUB DCT POVEL DCT RIMET/N0457F310 T157 KOKEB/N0407F230 T157 KERAX KERAX5A
Aircraft B77L/H-SADE1E2E3FGHIJ2J3J4J5M1RWXY/LB1D1

Departure

Time 2026-05-07 14:57
Airport Lennart Meri Tallinn Airport (EETN)

Arrival

Time 2026-05-07 16:54
Airport Frankfurt Main Airport (EDDF)
Time Latitude Longitude Altitude Speed Heading
2026-05-07 14:32 59.41591 24.81005 166 ft 0 kts 180°
2026-05-07 14:54 59.41581 24.81005 166 ft 5 kts 180°
2026-05-07 14:54 59.41543 24.81006 166 ft 6 kts 173°
2026-05-07 14:55 59.41508 24.81054 166 ft 8 kts 111°
2026-05-07 14:55 59.41478 24.81167 166 ft 15 kts 153°
2026-05-07 14:55 59.41381 24.81184 166 ft 14 kts 174°
2026-05-07 14:55 59.41330 24.81319 168 ft 3 kts 89°
2026-05-07 14:56 59.41330 24.81432 168 ft 29 kts 89°
2026-05-07 14:56 59.41328 24.82379 165 ft 107 kts 90°
2026-05-07 14:56 59.41325 24.83534 169 ft 147 kts 90°
2026-05-07 14:56 59.41299 24.85740 577 ft 161 kts 88°
2026-05-07 14:57 59.41309 24.88710 1501 ft 175 kts 87°
2026-05-07 14:57 59.40875 24.91157 1873 ft 217 kts 128°
2026-05-07 14:57 59.40019 24.92340 2166 ft 241 kts 157°
2026-05-07 14:57 59.38302 24.92525 3008 ft 256 kts 194°
2026-05-07 14:58 59.36732 24.90942 4093 ft 259 kts 223°
2026-05-07 14:58 59.35689 24.88088 5182 ft 257 kts 243°
2026-05-07 14:58 59.34887 24.84885 6175 ft 266 kts 244°
2026-05-07 14:58 59.34069 24.81548 7052 ft 276 kts 244°
2026-05-07 14:59 59.33224 24.78177 8053 ft 282 kts 245°
2026-05-07 14:59 59.32356 24.74747 9245 ft 279 kts 245°
2026-05-07 14:59 59.31482 24.71327 10370 ft 280 kts 245°
2026-05-07 14:59 59.30581 24.67855 11137 ft 294 kts 245°
2026-05-07 15:00 59.29623 24.64136 11571 ft 318 kts 245°
2026-05-07 15:00 59.28583 24.60130 11991 ft 342 kts 244°
2026-05-07 15:00 59.27463 24.55915 12754 ft 354 kts 244°
2026-05-07 15:00 59.26328 24.51667 13785 ft 357 kts 244°
2026-05-07 15:01 59.25185 24.47339 14899 ft 356 kts 244°
2026-05-07 15:01 59.24055 24.43041 16022 ft 355 kts 244°
2026-05-07 15:01 59.22923 24.38702 16889 ft 361 kts 245°
2026-05-07 15:01 59.21773 24.34278 17731 ft 367 kts 245°
2026-05-07 15:02 59.20611 24.29817 18605 ft 371 kts 245°
2026-05-07 15:02 59.19430 24.25318 19431 ft 373 kts 244°
2026-05-07 15:02 59.18233 24.20807 20278 ft 375 kts 244°
2026-05-07 15:02 59.17027 24.16294 21143 ft 376 kts 244°
2026-05-07 15:03 59.15811 24.11765 21972 ft 379 kts 244°
2026-05-07 15:03 59.14592 24.07231 22638 ft 385 kts 244°
2026-05-07 15:03 59.13347 24.02587 23365 ft 389 kts 243°
2026-05-07 15:03 59.12091 23.97901 24062 ft 391 kts 243°
2026-05-07 15:04 59.10831 23.93192 24721 ft 392 kts 243°
2026-05-07 15:04 59.09563 23.88468 25401 ft 394 kts 243°
2026-05-07 15:04 59.08281 23.83721 26039 ft 397 kts 242°
2026-05-07 15:04 59.06966 23.79292 26601 ft 400 kts 240°
2026-05-07 15:05 59.05529 23.74635 27169 ft 404 kts 240°
2026-05-07 15:05 59.04072 23.69939 27794 ft 406 kts 240°
2026-05-07 15:05 59.02610 23.65236 28407 ft 409 kts 240°
2026-05-07 15:05 59.01139 23.60503 28987 ft 411 kts 240°
2026-05-07 15:06 58.99654 23.55727 29516 ft 414 kts 240°
2026-05-07 15:06 58.98158 23.50919 30009 ft 419 kts 240°
2026-05-07 15:06 58.96639 23.46041 30249 ft 426 kts 240°
2026-05-07 15:06 58.95102 23.41115 30642 ft 427 kts 240°
2026-05-07 15:07 58.93563 23.36194 31176 ft 426 kts 240°
2026-05-07 15:07 58.92027 23.31294 31668 ft 425 kts 240°
2026-05-07 15:07 58.90495 23.26413 32183 ft 424 kts 240°
2026-05-07 15:07 58.88959 23.21535 32666 ft 424 kts 240°
2026-05-07 15:08 58.87427 23.16674 33133 ft 424 kts 240°
2026-05-07 15:08 58.85888 23.11806 33588 ft 424 kts 239°
2026-05-07 15:08 58.84352 23.06954 34044 ft 424 kts 239°
2026-05-07 15:08 58.82817 23.02113 34418 ft 424 kts 239°
2026-05-07 15:09 58.81270 22.97248 34729 ft 425 kts 239°
2026-05-07 15:09 58.79723 22.92391 35044 ft 426 kts 239°
2026-05-07 15:09 58.78188 22.87582 35365 ft 426 kts 239°
2026-05-07 15:09 58.76632 22.82716 35691 ft 427 kts 239°
2026-05-07 15:10 58.75067 22.77835 35968 ft 428 kts 239°
2026-05-07 15:10 58.73487 22.72911 35992 ft 433 kts 239°
2026-05-07 15:10 58.70313 22.63057 36079 ft 430 kts 239°
2026-05-07 15:11 58.67133 22.53365 36102 ft 427 kts 238°
2026-05-07 15:11 58.63907 22.43875 36083 ft 427 kts 238°
2026-05-07 15:12 58.60650 22.34338 36087 ft 428 kts 238°
2026-05-07 15:12 58.57380 22.24765 36078 ft 429 kts 238°
2026-05-07 15:13 58.54102 22.15188 36080 ft 430 kts 238°
2026-05-07 15:13 58.50836 22.05684 36073 ft 431 kts 238°
2026-05-07 15:14 58.47530 21.96102 36087 ft 432 kts 238°
2026-05-07 15:14 58.44215 21.86530 36082 ft 433 kts 238°
2026-05-07 15:15 58.40879 21.76939 36083 ft 433 kts 238°
2026-05-07 15:15 58.37537 21.67368 36084 ft 433 kts 238°
2026-05-07 15:16 58.34210 21.57881 36058 ft 433 kts 237°
2026-05-07 15:16 58.30858 21.48356 36096 ft 433 kts 238°
2026-05-07 15:17 58.27494 21.38835 36093 ft 434 kts 238°
2026-05-07 15:17 58.24107 21.29283 36088 ft 435 kts 237°
2026-05-07 15:18 58.20555 21.20058 36095 ft 437 kts 231°
2026-05-07 15:18 58.16276 21.11816 36096 ft 439 kts 227°
2026-05-07 15:19 58.11930 21.03689 36080 ft 438 kts 227°
2026-05-07 15:19 58.07606 20.95572 36095 ft 438 kts 227°
2026-05-07 15:20 58.03302 20.87501 36100 ft 438 kts 227°
2026-05-07 15:20 57.98964 20.79393 36098 ft 438 kts 227°
2026-05-07 15:21 57.94621 20.71309 36098 ft 439 kts 227°
2026-05-07 15:21 57.90272 20.63243 36078 ft 438 kts 226°
2026-05-07 15:22 57.85919 20.55198 36096 ft 438 kts 226°
2026-05-07 15:22 57.81595 20.47235 36100 ft 438 kts 226°
2026-05-07 15:23 57.77227 20.39218 36097 ft 439 kts 226°
2026-05-07 15:23 57.72841 20.31194 36097 ft 441 kts 226°
2026-05-07 15:24 57.68434 20.23163 36094 ft 442 kts 226°
2026-05-07 15:24 57.64329 20.14730 36100 ft 441 kts 231°
2026-05-07 15:25 57.60329 20.05980 36096 ft 442 kts 231°
2026-05-07 15:25 57.56327 19.97287 36100 ft 442 kts 231°
2026-05-07 15:26 57.52328 19.88652 36098 ft 442 kts 231°
2026-05-07 15:26 57.48302 19.79996 36103 ft 442 kts 231°
2026-05-07 15:27 57.44266 19.71353 36089 ft 441 kts 230°
2026-05-07 15:27 57.40236 19.62752 36100 ft 440 kts 230°
2026-05-07 15:28 57.36240 19.54254 36100 ft 440 kts 230°
2026-05-07 15:28 57.32203 19.45700 36101 ft 440 kts 230°
2026-05-07 15:29 57.28158 19.37162 36114 ft 441 kts 230°
2026-05-07 15:29 57.24120 19.28666 36111 ft 443 kts 230°
2026-05-07 15:30 57.20030 19.20095 36103 ft 445 kts 230°
2026-05-07 15:30 57.15929 19.11530 36102 ft 446 kts 230°
2026-05-07 15:31 57.11806 19.02953 36100 ft 447 kts 230°
2026-05-07 15:31 57.07696 18.94432 36104 ft 447 kts 230°
2026-05-07 15:32 57.03548 18.85864 36084 ft 447 kts 230°
2026-05-07 15:32 56.99428 18.77385 36097 ft 446 kts 230°
2026-05-07 15:33 56.95296 18.68913 36100 ft 445 kts 229°
2026-05-07 15:33 56.91181 18.60503 36104 ft 445 kts 229°
2026-05-07 15:34 56.87048 18.52088 36100 ft 444 kts 229°
2026-05-07 15:34 56.82900 18.43672 36079 ft 444 kts 229°
2026-05-07 15:35 56.78747 18.35278 36103 ft 446 kts 229°
2026-05-07 15:35 56.74598 18.26920 36108 ft 447 kts 229°
2026-05-07 15:36 56.70404 18.18502 36106 ft 449 kts 229°
2026-05-07 15:36 56.66189 18.10072 36102 ft 450 kts 229°
2026-05-07 15:37 56.61961 18.01646 36104 ft 451 kts 229°
2026-05-07 15:37 56.57748 17.93279 36095 ft 451 kts 229°
2026-05-07 15:38 56.53513 17.84901 36100 ft 450 kts 228°
2026-05-07 15:38 56.49280 17.76554 36101 ft 449 kts 228°
2026-05-07 15:39 56.45045 17.68235 36101 ft 449 kts 228°
2026-05-07 15:39 56.40825 17.59974 36104 ft 448 kts 228°
2026-05-07 15:40 56.36586 17.51703 36092 ft 447 kts 228°
2026-05-07 15:40 56.32356 17.43480 36095 ft 448 kts 228°
2026-05-07 15:41 56.28120 17.35274 36110 ft 450 kts 228°
2026-05-07 15:41 56.24567 17.28411 36112 ft 451 kts 227°
2026-05-07 15:42 56.20259 17.20120 36108 ft 453 kts 227°
2026-05-07 15:42 56.15971 17.11894 36097 ft 454 kts 227°
2026-05-07 15:43 56.11638 17.03611 36108 ft 454 kts 227°
2026-05-07 15:43 56.07310 16.95367 36103 ft 454 kts 227°
2026-05-07 15:44 56.03003 16.87187 36098 ft 453 kts 227°
2026-05-07 15:44 55.98659 16.79025 36103 ft 452 kts 226°
2026-05-07 15:45 55.94118 16.71227 36111 ft 452 kts 224°
2026-05-07 15:45 55.89527 16.63571 36113 ft 451 kts 224°
2026-05-07 15:46 55.82710 16.52115 36109 ft 451 kts 224°
2026-05-07 15:47 55.78151 16.44426 36110 ft 451 kts 224°
2026-05-07 15:47 55.73598 16.36765 36106 ft 451 kts 224°
2026-05-07 15:48 55.69064 16.29165 36107 ft 451 kts 224°
2026-05-07 15:48 55.64493 16.21531 36108 ft 451 kts 224°
2026-05-07 15:49 55.59922 16.13923 36104 ft 451 kts 224°
2026-05-07 15:49 55.55339 16.06320 36107 ft 451 kts 223°
2026-05-07 15:50 55.50783 15.98787 36107 ft 451 kts 223°
2026-05-07 15:50 55.46184 15.91209 36112 ft 451 kts 223°
2026-05-07 15:51 55.41588 15.83660 36108 ft 451 kts 223°
2026-05-07 15:51 55.37011 15.76168 36110 ft 451 kts 223°
2026-05-07 15:52 55.32402 15.68649 36113 ft 451 kts 223°
2026-05-07 15:52 55.27783 15.61137 36114 ft 452 kts 223°
2026-05-07 15:53 55.23177 15.53672 36119 ft 454 kts 223°
2026-05-07 15:53 55.18495 15.46109 36116 ft 456 kts 223°
2026-05-07 15:54 55.13847 15.38627 36113 ft 457 kts 223°
2026-05-07 15:54 55.09155 15.31097 36112 ft 458 kts 223°
2026-05-07 15:55 55.04449 15.23571 36111 ft 458 kts 223°
2026-05-07 15:55 54.99772 15.16115 36114 ft 457 kts 223°
2026-05-07 15:56 54.95062 15.08632 36115 ft 457 kts 222°
2026-05-07 15:56 54.90356 15.01179 36114 ft 457 kts 222°
2026-05-07 15:57 54.85684 14.93802 36121 ft 456 kts 222°
2026-05-07 15:57 54.80985 14.86407 36113 ft 456 kts 222°
2026-05-07 15:58 54.76346 14.78904 36111 ft 455 kts 224°
2026-05-07 15:58 54.71761 14.71308 36102 ft 457 kts 224°
2026-05-07 15:59 54.67124 14.63674 36120 ft 461 kts 223°
2026-05-07 15:59 54.62474 14.56077 36118 ft 463 kts 223°
2026-05-07 16:00 54.57775 14.48434 36121 ft 464 kts 223°
2026-05-07 16:00 54.53073 14.40808 36118 ft 463 kts 223°
2026-05-07 16:01 54.48377 14.33213 36104 ft 462 kts 223°
2026-05-07 16:01 54.43714 14.25709 36100 ft 461 kts 223°
2026-05-07 16:02 54.39016 14.18203 36115 ft 460 kts 223°
2026-05-07 16:02 54.34329 14.10737 36113 ft 459 kts 222°
2026-05-07 16:03 54.29644 14.03294 36114 ft 459 kts 222°
2026-05-07 16:03 54.24991 13.95922 36115 ft 459 kts 222°
2026-05-07 16:04 54.20295 13.88505 36100 ft 460 kts 222°
2026-05-07 16:04 54.15573 13.81072 36118 ft 462 kts 222°
2026-05-07 16:05 54.10833 13.73635 36117 ft 463 kts 222°
2026-05-07 16:05 54.06101 13.66233 36112 ft 464 kts 222°
2026-05-07 16:06 54.01325 13.58788 36112 ft 465 kts 222°
2026-05-07 16:06 53.96545 13.51362 36099 ft 465 kts 222°
2026-05-07 16:07 53.91785 13.43990 36090 ft 464 kts 222°
2026-05-07 16:07 53.87000 13.36603 36103 ft 463 kts 222°
2026-05-07 16:08 53.82262 13.29312 36086 ft 462 kts 222°
2026-05-07 16:08 53.77499 13.22005 36083 ft 462 kts 221°
2026-05-07 16:09 53.72734 13.14720 36103 ft 461 kts 221°
2026-05-07 16:09 53.67993 13.07495 36082 ft 462 kts 221°
2026-05-07 16:10 53.63209 13.00226 36077 ft 462 kts 221°
2026-05-07 16:10 53.58410 12.92958 36081 ft 463 kts 221°
2026-05-07 16:11 53.53606 12.85706 36072 ft 464 kts 221°
2026-05-07 16:11 53.48818 12.78500 36076 ft 465 kts 221°
2026-05-07 16:12 53.43983 12.71248 36075 ft 464 kts 221°
2026-05-07 16:12 53.39161 12.64037 36070 ft 464 kts 221°
2026-05-07 16:13 53.34336 12.56845 36068 ft 463 kts 221°
2026-05-07 16:13 53.29541 12.49720 36066 ft 464 kts 221°
2026-05-07 16:14 53.24692 12.42538 36063 ft 464 kts 221°
2026-05-07 16:14 53.19880 12.35432 36057 ft 465 kts 221°
2026-05-07 16:15 53.15019 12.28278 36067 ft 466 kts 221°
2026-05-07 16:15 53.10136 12.21113 36058 ft 467 kts 221°
2026-05-07 16:16 53.05280 12.14010 36065 ft 468 kts 221°
2026-05-07 16:16 53.00376 12.06858 36065 ft 469 kts 221°
2026-05-07 16:17 52.95462 11.99714 36062 ft 468 kts 221°
2026-05-07 16:17 52.90582 11.92644 36064 ft 468 kts 221°
2026-05-07 16:18 52.85678 11.85560 36067 ft 467 kts 221°
2026-05-07 16:18 52.80766 11.78487 36061 ft 467 kts 221°
2026-05-07 16:19 52.75887 11.71481 36064 ft 466 kts 221°
2026-05-07 16:19 52.70981 11.64461 36071 ft 466 kts 221°
2026-05-07 16:20 52.66062 11.57443 36064 ft 467 kts 221°
2026-05-07 16:20 52.61162 11.50473 36072 ft 468 kts 221°
2026-05-07 16:21 52.56211 11.43452 36074 ft 469 kts 220°
2026-05-07 16:21 52.51275 11.36475 36074 ft 470 kts 220°
2026-05-07 16:22 52.46299 11.29462 36064 ft 471 kts 220°
2026-05-07 16:22 52.41348 11.22506 36071 ft 471 kts 220°
2026-05-07 16:23 52.36360 11.15520 36076 ft 471 kts 220°
2026-05-07 16:23 52.31381 11.08566 36086 ft 470 kts 220°
2026-05-07 16:24 52.26400 11.01632 36089 ft 471 kts 220°
2026-05-07 16:24 52.21438 10.94743 36081 ft 471 kts 220°
2026-05-07 16:25 52.16443 10.87830 36093 ft 470 kts 220°
2026-05-07 16:25 52.11162 10.81584 36083 ft 469 kts 211°
2026-05-07 16:26 52.05359 10.76882 36086 ft 469 kts 206°
2026-05-07 16:26 51.99441 10.72366 36077 ft 468 kts 206°
2026-05-07 16:27 51.93584 10.67858 36076 ft 468 kts 206°
2026-05-07 16:27 51.87697 10.63308 36075 ft 468 kts 206°
2026-05-07 16:28 51.82800 10.59526 36079 ft 468 kts 206°
2026-05-07 16:28 51.76909 10.54990 36072 ft 469 kts 206°
2026-05-07 16:29 51.70997 10.50452 36080 ft 470 kts 206°
2026-05-07 16:29 51.65107 10.45945 35982 ft 472 kts 206°
2026-05-07 16:29 51.62117 10.43662 35426 ft 477 kts 206°
2026-05-07 16:30 51.59125 10.41381 34931 ft 472 kts 206°
2026-05-07 16:30 51.56169 10.39131 34417 ft 467 kts 206°
2026-05-07 16:30 51.53238 10.36903 33884 ft 463 kts 206°
2026-05-07 16:30 51.50376 10.34730 33317 ft 459 kts 206°
2026-05-07 16:31 51.47499 10.32548 32802 ft 454 kts 206°
2026-05-07 16:31 51.44653 10.30392 32297 ft 448 kts 206°
2026-05-07 16:31 51.41846 10.28269 31799 ft 443 kts 206°
2026-05-07 16:31 51.39066 10.26170 31317 ft 439 kts 205°
2026-05-07 16:32 51.36300 10.24165 30838 ft 434 kts 201°
2026-05-07 16:32 51.33429 10.22753 30370 ft 430 kts 193°
2026-05-07 16:32 51.30535 10.21942 29878 ft 425 kts 187°
2026-05-07 16:32 51.27587 10.21688 29358 ft 421 kts 180°
2026-05-07 16:33 51.24681 10.21700 28893 ft 415 kts 180°
2026-05-07 16:33 51.21800 10.21702 28431 ft 410 kts 181°
2026-05-07 16:33 51.18955 10.21676 27968 ft 406 kts 181°
2026-05-07 16:33 51.16136 10.21633 27512 ft 402 kts 181°
2026-05-07 16:34 51.13382 10.21585 27061 ft 399 kts 181°
2026-05-07 16:34 51.10610 10.21532 26615 ft 396 kts 181°
2026-05-07 16:34 51.07862 10.21479 26176 ft 393 kts 181°
2026-05-07 16:34 51.05133 10.21425 25743 ft 390 kts 181°
2026-05-07 16:35 51.02431 10.21373 25320 ft 387 kts 181°
2026-05-07 16:35 50.99740 10.21321 24893 ft 385 kts 181°
2026-05-07 16:35 50.97103 10.21271 24476 ft 382 kts 181°
2026-05-07 16:35 50.94447 10.21220 24063 ft 380 kts 181°
2026-05-07 16:36 50.91803 10.21170 23652 ft 378 kts 181°
2026-05-07 16:36 50.89193 10.21121 23177 ft 376 kts 181°
2026-05-07 16:36 50.86615 10.21070 22862 ft 370 kts 182°
2026-05-07 16:36 50.84046 10.21007 22630 ft 367 kts 182°
2026-05-07 16:37 50.81522 10.20326 22385 ft 373 kts 202°
2026-05-07 16:37 50.79315 10.18159 22180 ft 376 kts 223°
2026-05-07 16:37 50.77468 10.15244 21920 ft 374 kts 227°
2026-05-07 16:37 50.75736 10.12178 21666 ft 373 kts 230°
2026-05-07 16:38 50.74104 10.09071 21420 ft 369 kts 231°
2026-05-07 16:38 50.72474 10.05890 21172 ft 365 kts 232°
2026-05-07 16:38 50.70912 10.02838 20964 ft 361 kts 231°
2026-05-07 16:38 50.69331 9.99761 20716 ft 358 kts 231°
2026-05-07 16:39 50.67754 9.96712 20483 ft 360 kts 231°
2026-05-07 16:39 50.66157 9.93641 20276 ft 362 kts 231°
2026-05-07 16:39 50.64552 9.90566 20039 ft 362 kts 231°
2026-05-07 16:39 50.62967 9.87538 19817 ft 362 kts 231°
2026-05-07 16:40 50.61357 9.84469 19590 ft 362 kts 231°
2026-05-07 16:40 50.59751 9.81412 19354 ft 362 kts 231°
2026-05-07 16:40 50.58138 9.78368 19128 ft 360 kts 230°
2026-05-07 16:40 50.56488 9.75471 18658 ft 351 kts 229°
2026-05-07 16:41 50.54837 9.72686 17879 ft 346 kts 228°
2026-05-07 16:41 50.53190 9.69933 16975 ft 344 kts 228°
2026-05-07 16:41 50.51575 9.67232 16119 ft 342 kts 228°
2026-05-07 16:41 50.49952 9.64510 15320 ft 339 kts 228°
2026-05-07 16:42 50.48348 9.61813 14582 ft 339 kts 228°
2026-05-07 16:42 50.46734 9.59093 14077 ft 339 kts 229°
2026-05-07 16:42 50.45135 9.56395 13651 ft 336 kts 229°
2026-05-07 16:42 50.43552 9.53727 13263 ft 331 kts 228°
2026-05-07 16:43 50.41989 9.51096 12907 ft 326 kts 229°
2026-05-07 16:43 50.40453 9.48510 12555 ft 324 kts 228°
2026-05-07 16:43 50.38913 9.45920 12217 ft 322 kts 229°
2026-05-07 16:43 50.37385 9.43350 11889 ft 321 kts 228°
2026-05-07 16:44 50.35863 9.40796 11553 ft 320 kts 228°
2026-05-07 16:44 50.34363 9.38279 11221 ft 320 kts 228°
2026-05-07 16:44 50.32847 9.35738 10881 ft 319 kts 228°
2026-05-07 16:44 50.31331 9.33202 10561 ft 318 kts 228°
2026-05-07 16:45 50.29818 9.30672 10188 ft 318 kts 228°
2026-05-07 16:45 50.28314 9.28160 9841 ft 314 kts 228°
2026-05-07 16:45 50.26834 9.25690 9469 ft 309 kts 228°
2026-05-07 16:45 50.25364 9.23237 9147 ft 307 kts 228°
2026-05-07 16:46 50.23904 9.20805 8830 ft 306 kts 228°
2026-05-07 16:46 50.22447 9.18379 8490 ft 305 kts 228°
2026-05-07 16:46 50.20996 9.15966 8186 ft 303 kts 228°
2026-05-07 16:46 50.19581 9.13619 7885 ft 297 kts 228°
2026-05-07 16:47 50.18274 9.11207 7542 ft 284 kts 241°
2026-05-07 16:47 50.17571 9.08384 7269 ft 276 kts 255°
2026-05-07 16:47 50.16990 9.05499 6991 ft 279 kts 252°
2026-05-07 16:47 50.16324 9.02625 6700 ft 282 kts 251°
2026-05-07 16:48 50.15637 8.99749 6407 ft 284 kts 250°
2026-05-07 16:48 50.14950 8.96878 6072 ft 279 kts 251°
2026-05-07 16:48 50.14287 8.94096 5776 ft 273 kts 251°
2026-05-07 16:48 50.13636 8.91357 5486 ft 267 kts 251°
2026-05-07 16:49 50.12999 8.88681 5211 ft 260 kts 251°
2026-05-07 16:49 50.12379 8.86074 5060 ft 249 kts 251°
2026-05-07 16:49 50.11786 8.83581 4704 ft 242 kts 251°
2026-05-07 16:49 50.11214 8.81182 4361 ft 230 kts 251°
2026-05-07 16:50 50.10677 8.78928 4047 ft 220 kts 251°
2026-05-07 16:50 50.10149 8.76710 3733 ft 217 kts 251°
2026-05-07 16:50 50.09633 8.74541 3474 ft 209 kts 252°
2026-05-07 16:50 50.09142 8.72483 3129 ft 196 kts 252°
2026-05-07 16:51 50.08677 8.70539 2846 ft 186 kts 252°
2026-05-07 16:51 50.08231 8.68664 2629 ft 183 kts 252°
2026-05-07 16:51 50.07791 8.66812 2330 ft 182 kts 251°
2026-05-07 16:51 50.07355 8.64985 2075 ft 178 kts 251°
2026-05-07 16:52 50.06940 8.63245 1827 ft 171 kts 251°
2026-05-07 16:52 50.06537 8.61557 1586 ft 158 kts 251°
2026-05-07 16:52 50.06165 8.60017 1351 ft 151 kts 251°
2026-05-07 16:52 50.05810 8.58519 1109 ft 147 kts 250°
2026-05-07 16:53 50.05462 8.57060 926 ft 142 kts 249°
2026-05-07 16:53 50.05125 8.55636 697 ft 137 kts 249°
2026-05-07 16:53 50.04797 8.54276 524 ft 139 kts 248°
2026-05-07 16:53 50.04462 8.52860 371 ft 137 kts 247°
2026-05-07 16:54 50.04161 8.51611 350 ft 101 kts 249°
2026-05-07 16:54 50.03980 8.50855 324 ft 52 kts 249°
2026-05-07 16:54 50.03851 8.50414 321 ft 35 kts 233°
2026-05-07 16:54 50.03708 8.50210 319 ft 17 kts 217°
2026-05-07 16:55 50.03626 8.50253 320 ft 16 kts 93°
2026-05-07 16:55 50.03660 8.50419 324 ft 16 kts 69°
2026-05-07 16:55 50.03700 8.50588 330 ft 19 kts 70°
2026-05-07 16:55 50.03753 8.50806 335 ft 22 kts 70°
2026-05-07 16:56 50.03807 8.51033 348 ft 22 kts 70°
2026-05-07 16:56 50.03861 8.51259 352 ft 22 kts 69°
2026-05-07 16:56 50.03976 8.51740 337 ft 24 kts 69°
2026-05-07 16:57 50.04033 8.51979 336 ft 24 kts 70°
2026-05-07 16:57 50.04093 8.52228 351 ft 24 kts 70°
2026-05-07 16:57 50.04152 8.52476 355 ft 24 kts 69°
2026-05-07 16:57 50.04212 8.52725 364 ft 24 kts 70°
2026-05-07 16:58 50.04272 8.52973 367 ft 24 kts 69°
2026-05-07 16:58 50.04331 8.53222 367 ft 24 kts 69°
2026-05-07 16:58 50.04389 8.53468 374 ft 24 kts 75°
2026-05-07 16:58 50.04409 8.53732 370 ft 25 kts 84°
2026-05-07 16:59 50.04427 8.53996 365 ft 25 kts 84°
2026-05-07 16:59 50.04445 8.54261 370 ft 25 kts 84°
2026-05-07 16:59 50.04446 8.54521 370 ft 25 kts 103°
2026-05-07 16:59 50.04350 8.54736 369 ft 25 kts 144°
2026-05-07 17:00 50.04193 8.54839 371 ft 25 kts 160°
2026-05-07 17:00 50.04063 8.54913 369 ft 16 kts 160°
2026-05-07 17:00 50.03979 8.54850 372 ft 16 kts 247°
2026-05-07 17:00 50.03938 8.54684 369 ft 16 kts 249°
2026-05-07 17:01 50.03899 8.54518 370 ft 16 kts 250°
2026-05-07 17:01 50.03864 8.54378 372 ft 11 kts 246°
2026-05-07 17:01 50.03896 8.54284 368 ft 11 kts 336°
2026-05-07 17:01 50.03964 8.54242 371 ft 4 kts 339°
2026-05-07 17:02 50.03993 8.54242 368 ft 5 kts 31°
2026-05-07 17:02 50.04012 8.54286 370 ft 4 kts 62°
2026-05-07 17:02 50.04022 8.54325 372 ft 3 kts 70°
2026-05-07 17:02 50.04025 8.54338 372 ft 0 kts 70°